#timestamp,LO_Frequency,Hit,StdDev 
1598058015.9,286046997.5,N
1598058035.7,286046995.4,N
1598058055.6,286046995.3,N
1598058075.4,286046997.4,N
1598058095.3,286046997.5,N
1598058115.1,286046995.5,N
1598058116.0,286046995.5,N
1598058135.8,286046995.9,N
1598058155.7,286046995.9,N
1598058175.5,286046995.3,N
1598058195.3,286046998.0,N
1598058215.2,286046997.5,N
1598058235.0,286046994.9,Y
1598058235.9,286046994.9,P
1598058255.8,286046999.3,N
1598058275.6,286046998.9,N
1598058295.4,286046999.2,N
1598058315.3,286046999.5,N
1598058335.1,286046999.6,N
1598058355.9,286046998.3,N
1598058375.7,286046998.3,N
1598058395.5,286047001.1,N
1598058415.4,286047000.7,N
1598058435.2,286047000.0,N
1598058455.0,286046998.4,N
1598058455.9,286046998.4,N
1598058475.8,286046998.9,N
1598058495.6,286046999.3,N
1598058515.4,286046998.8,N
1598058535.3,286046999.3,N
1598058555.1,286046999.4,N
1598058575.9,286046999.5,N
1598058595.7,286046998.6,N
1598058615.5,286046998.6,N
1598058635.4,286046998.6,N
1598058655.2,286046998.8,N
1598058675.0,286046998.5,N
1598058675.9,286046998.5,N
1598058695.8,286046998.6,N
1598058715.6,286046998.1,N
1598058735.5,286046998.8,N
1598058755.3,286047002.4,N
1598058775.1,286047000.0,N
1598058795.9,286047001.2,N
1598058815.7,286047001.1,N
1598058835.5,286047001.2,N
1598058855.4,286047001.0,N
1598058875.2,286047001.0,N
1598058895.1,286047001.1,N
1598058896.0,286047001.1,N
1598058915.8,286047000.5,N
1598058935.6,286047000.7,N
1598058955.5,286046998.6,N
1598058975.3,286046998.6,N
1598058995.1,286046998.3,N
1598059015.9,286047000.8,N
1598059035.7,286047001.2,N
1598059055.6,286047001.1,N
1598059075.4,286047000.6,N
1598059095.2,286046999.9,N
1598059115.1,286047000.6,N
1598059116.0,286047000.6,N
1598059135.8,286047000.1,N
1598059155.6,286047000.4,N
1598059175.5,286047002.4,N
1598059195.3,286047002.7,N
1598059215.2,286046999.9,N
1598059235.9,286047000.2,N
1598059255.7,286047000.0,N
1598059275.6,286047002.3,N
1598059295.4,286047002.6,N
1598059315.2,286046999.9,N
1598059335.1,286047002.7,N
1598059336.0,286047002.7,N
1598059355.8,286047000.5,N
1598059375.7,286046999.7,N
1598059395.5,286046999.8,N
1598059415.3,286047002.3,N
1598059435.2,286047002.5,N
1598059455.0,286047002.8,N
1598059455.9,286047002.8,N
1598059475.7,286047000.4,N
1598059495.6,286046999.8,N
1598059515.4,286046999.8,N
1598059535.3,286046999.9,N
1598059555.1,286047001.9,N
1598059556.0,286047001.9,N
1598059575.8,286047004.3,Y
1598059595.7,286047000.0,P
1598059615.5,286047002.5,P
1598059635.3,286046999.8,N
1598059655.2,286047000.0,N
1598059675.0,286047000.8,N
1598059675.9,286047000.8,N
1598059695.8,286047001.2,N
1598059715.6,286047000.8,N
1598059735.4,286047000.7,N
1598059755.3,286047000.9,N
1598059775.1,286047000.2,N
1598059795.8,286047000.6,N
1598059815.7,286047000.2,N
1598059835.5,286047000.1,N
1598059855.4,286047002.7,Y
1598059875.2,286047002.4,P
1598059895.0,286047002.4,N
1598059895.9,286047002.4,N
1598059915.8,286046999.9,N
1598059935.6,286047001.1,N
1598059955.5,286046998.6,N
1598059975.3,286047000.6,N
1598059995.1,286047000.2,N
1598060015.9,286047000.0,N
1598060035.7,286047000.9,N
1598060055.6,286046999.7,N
1598060075.4,286047001.6,N
1598060095.2,286046999.9,N
1598060115.1,286047000.0,N
1598060116.0,286047000.0,N
1598060135.8,286047002.0,N
1598060155.6,286047002.0,N
1598060175.5,286047001.4,N
1598060195.3,286047001.5,N
1598060215.2,286047001.8,N
1598060235.9,286047001.7,N
1598060255.7,286047002.5,N
1598060275.6,286047002.1,N
1598060295.4,286047002.4,N
1598060315.2,286047002.4,N
1598060335.1,286047002.1,N
1598060336.0,286047002.1,N
1598060355.8,286047000.3,N
1598060375.7,286047002.2,N
1598060395.5,286047002.0,N
1598060415.3,286047001.6,N
1598060435.2,286047001.9,N
1598060455.9,286047002.7,N
1598060475.7,286047002.8,N
1598060495.6,286047001.6,N
1598060515.4,286047001.6,N
1598060535.3,286047004.3,Y
1598060555.1,286047002.6,P
1598060556.0,286047002.6,P
1598060575.8,286046999.7,N
1598060595.7,286047002.0,N
1598060615.5,286047001.9,N
1598060635.3,286047002.3,N
1598060655.2,286047002.1,N
1598060675.0,286047002.1,N
1598060675.9,286047002.1,N
1598060695.8,286046999.7,N
1598060715.6,286047000.3,N
1598060735.4,286047002.4,N
1598060755.3,286047002.5,N
1598060775.1,286047002.3,N
1598060795.8,286047002.3,N
1598060815.7,286047002.1,N
1598060835.5,286047002.3,N
1598060855.4,286047002.3,N
1598060875.2,286047002.4,N
1598060895.0,286047002.1,N
1598060895.9,286047002.1,N
1598060915.8,286047002.5,N
1598060935.6,286047000.1,N
1598060955.4,286046999.7,N
1598060975.3,286047000.0,N
1598060995.1,286047000.6,N
1598061015.9,286047002.4,N
1598061035.7,286047001.5,N
1598061055.5,286047004.3,Y
1598061075.4,286047002.1,P
1598061095.2,286047000.3,N
1598061115.0,286047000.5,N
1598061115.9,286047000.5,N
1598061135.8,286047001.2,N
1598061155.6,286047000.5,N
1598061175.5,286047000.4,N
1598061195.3,286047000.5,N
1598061215.1,286047000.4,N
1598061235.9,286047000.8,N
1598061255.7,286047000.8,N
1598061275.5,286046998.1,Y
1598061295.4,286046999.4,P
1598061315.2,286046996.6,P
1598061335.1,286046999.5,N
1598061336.0,286046999.5,N
1598061355.8,286046999.1,N
1598061375.6,286046999.1,N
1598061395.5,286046999.1,N
1598061415.3,286046998.9,N
1598061435.2,286046998.1,N
1598061455.9,286047000.2,N
1598061475.7,286047000.7,N
1598061495.6,286047001.2,N
1598061515.4,286046998.6,N
1598061535.2,286047000.6,N
1598061555.1,286047001.1,N
1598061556.0,286047001.1,N
1598061575.8,286046998.4,N
1598061595.7,286046998.3,N
